Stündliche Wetter Dabie

Heute, 23 Oktober, Freitag

Zeit Temperatur Niederschläge Wind Luftdruck Luftfeuchtigkeit
00:00 +12°C° 0 mm 3 m/S 741 mmHg 77%
01:00 +12°C° 0 mm 3 m/S 741 mmHg 77%
02:00 +11°C° 0 mm 3 m/S 741 mmHg 78%
03:00 +11°C° 0 mm 3 m/S 741 mmHg 80%
04:00 +11°C° 0 mm 3 m/S 740 mmHg 81%
05:00 +11°C° 0 mm 3 m/S 740 mmHg 81%
06:00 +10°C° 0 mm 3 m/S 740 mmHg 81%
07:00 +10°C° 0 mm 3 m/S 740 mmHg 81%
08:00 +12°C° 0 mm 3 m/S 740 mmHg 77%
09:00 +13°C° 0 mm 3 m/S 740 mmHg 73%
10:00 +14°C° 0 mm 3 m/S 739 mmHg 69%
11:00 +16°C° 0 mm 3 m/S 739 mmHg 66%
12:00 +17°C° 0 mm 3 m/S 739 mmHg 63%
13:00 +18°C° 0 mm 2 m/S 739 mmHg 60%
14:00 +17°C° 0 mm 2 m/S 739 mmHg 64%
15:00 +17°C° 0 mm 2 m/S 738 mmHg 67%
16:00 +16°C° 0 mm 1 m/S 738 mmHg 70%
17:00 +15°C° 0 mm 2 m/S 738 mmHg 72%
18:00 +15°C° 0 mm 2 m/S 738 mmHg 74%
19:00 +14°C° 0 mm 2 m/S 738 mmHg 75%
20:00 +14°C° 0 mm 2 m/S 738 mmHg 77%
21:00 +14°C° 0 mm 2 m/S 738 mmHg 78%
22:00 +13°C° 0 mm 2 m/S 738 mmHg 79%
23:00 +13°C° 0 mm 2 m/S 738 mmHg 80%

Morgen, 24 Oktober, Samstag

Zeit Temperatur Niederschläge Wind Luftdruck Luftfeuchtigkeit
00:00 +13°C° 0 mm 2 m/S 738 mmHg 81%
01:00 +13°C° 0 mm 2 m/S 738 mmHg 83%
02:00 +13°C° 0 mm 2 m/S 737 mmHg 83%
03:00 +13°C° 0 mm 2 m/S 737 mmHg 84%
04:00 +11°C° 0 mm 3 m/S 737 mmHg 84%
05:00 +11°C° 0.3 mm 3 m/S 737 mmHg 86%
06:00 +11°C° 0.3 mm 4 m/S 737 mmHg 89%
07:00 +11°C° 0.3 mm 4 m/S 737 mmHg 91%
08:00 +11°C° 0.8 mm 4 m/S 738 mmHg 91%
09:00 +12°C° 0.8 mm 5 m/S 738 mmHg 91%
10:00 +12°C° 0.8 mm 5 m/S 738 mmHg 91%
11:00 +13°C° 0.1 mm 5 m/S 739 mmHg 88%
12:00 +14°C° 0.1 mm 5 m/S 739 mmHg 85%
13:00 +14°C° 0.1 mm 5 m/S 739 mmHg 82%
14:00 +14°C° 0 mm 4 m/S 740 mmHg 82%
15:00 +14°C° 0 mm 4 m/S 740 mmHg 82%
16:00 +13°C° 0 mm 3 m/S 740 mmHg 82%
17:00 +13°C° 0 mm 3 m/S 740 mmHg 85%
18:00 +13°C° 0 mm 2 m/S 741 mmHg 87%
19:00 +12°C° 0 mm 2 m/S 741 mmHg 90%
20:00 +12°C° 0 mm 2 m/S 742 mmHg 90%
21:00 +10°C° 0 mm 2 m/S 742 mmHg 91%
22:00 +10°C° 0 mm 2 m/S 742 mmHg 92%
23:00 +9°C° 0 mm 2 m/S 742 mmHg 92%

übermorgen, 25 Oktober, Sonntag

Zeit Temperatur Niederschläge Wind Luftdruck Luftfeuchtigkeit
00:00 +10°C° 0 mm 1 m/S 742 mmHg 92%
01:00 +10°C° 0 mm 1 m/S 742 mmHg 92%
02:00 +10°C° 0 mm 1 m/S 742 mmHg 91%
03:00 +10°C° 0 mm 1 m/S 742 mmHg 91%
04:00 +10°C° 0 mm 1 m/S 742 mmHg 90%
05:00 +10°C° 0 mm 1 m/S 742 mmHg 90%
06:00 +9°C° 0 mm 2 m/S 742 mmHg 91%
07:00 +9°C° 0 mm 2 m/S 742 mmHg 91%
08:00 +10°C° 0 mm 2 m/S 742 mmHg 85%
09:00 +13°C° 0 mm 2 m/S 742 mmHg 79%
10:00 +13°C° 0 mm 3 m/S 742 mmHg 73%
11:00 +14°C° 0 mm 3 m/S 742 mmHg 70%
12:00 +16°C° 0 mm 3 m/S 742 mmHg 68%
13:00 +16°C° 0 mm 3 m/S 741 mmHg 65%
14:00 +16°C° 0 mm 3 m/S 741 mmHg 68%
15:00 +14°C° 0 mm 3 m/S 741 mmHg 72%
16:00 +13°C° 0 mm 3 m/S 740 mmHg 76%
17:00 +12°C° 0 mm 3 m/S 741 mmHg 79%
18:00 +11°C° 0 mm 3 m/S 741 mmHg 81%
19:00 +11°C° 0 mm 3 m/S 741 mmHg 84%
20:00 +10°C° 0 mm 3 m/S 740 mmHg 86%
21:00 +10°C° 0 mm 3 m/S 740 mmHg 88%
22:00 +9°C° 0 mm 3 m/S 740 mmHg 90%
23:00 +9°C° 0 mm 3 m/S 740 mmHg 91%

, 26 Oktober, Montag

Zeit Temperatur Niederschläge Wind Luftdruck Luftfeuchtigkeit
00:00 +9°C° 0 mm 3 m/S 739 mmHg 92%
01:00 +8°C° 0 mm 3 m/S 739 mmHg 94%
02:00 +8°C° 0 mm 3 m/S 739 mmHg 94%
03:00 +8°C° 0 mm 3 m/S 738 mmHg 94%
04:00 +8°C° 0 mm 2 m/S 738 mmHg 94%
05:00 +8°C° 0 mm 3 m/S 738 mmHg 93%
06:00 +8°C° 0 mm 3 m/S 738 mmHg 92%
07:00 +8°C° 0 mm 3 m/S 737 mmHg 92%
08:00 +8°C° 0 mm 4 m/S 737 mmHg 87%
09:00 +11°C° 0 mm 4 m/S 737 mmHg 82%
10:00 +13°C° 0 mm 5 m/S 736 mmHg 78%
11:00 +14°C° 0 mm 5 m/S 736 mmHg 75%
12:00 +15°C° 0 mm 5 m/S 736 mmHg 72%
13:00 +15°C° 0 mm 6 m/S 736 mmHg 70%
14:00 +15°C° 0 mm 5 m/S 735 mmHg 72%
15:00 +14°C° 0 mm 5 m/S 735 mmHg 74%
16:00 +14°C° 0 mm 4 m/S 735 mmHg 76%
17:00 +13°C° 0 mm 4 m/S 735 mmHg 78%
18:00 +12°C° 0 mm 4 m/S 735 mmHg 80%
19:00 +12°C° 0 mm 4 m/S 735 mmHg 83%
20:00 +11°C° 0 mm 4 m/S 735 mmHg 84%
21:00 +11°C° 0 mm 4 m/S 735 mmHg 85%
22:00 +10°C° 0 mm 3 m/S 735 mmHg 87%
23:00 +10°C° 0 mm 3 m/S 735 mmHg 87%

26 Oktober, Montag

Zeit Temperatur Niederschläge Wind Luftdruck Luftfeuchtigkeit
00:00 +9°C° 0 mm 3 m/S 739 mmHg 92%
01:00 +8°C° 0 mm 3 m/S 739 mmHg 94%
02:00 +8°C° 0 mm 3 m/S 739 mmHg 94%
03:00 +8°C° 0 mm 3 m/S 738 mmHg 94%
04:00 +8°C° 0 mm 2 m/S 738 mmHg 94%
05:00 +8°C° 0 mm 3 m/S 738 mmHg 93%
06:00 +8°C° 0 mm 3 m/S 738 mmHg 92%
07:00 +8°C° 0 mm 3 m/S 737 mmHg 92%
08:00 +8°C° 0 mm 4 m/S 737 mmHg 87%
09:00 +11°C° 0 mm 4 m/S 737 mmHg 82%
10:00 +13°C° 0 mm 5 m/S 736 mmHg 78%
11:00 +14°C° 0 mm 5 m/S 736 mmHg 75%
12:00 +15°C° 0 mm 5 m/S 736 mmHg 72%
13:00 +15°C° 0 mm 6 m/S 736 mmHg 70%
14:00 +15°C° 0 mm 5 m/S 735 mmHg 72%
15:00 +14°C° 0 mm 5 m/S 735 mmHg 74%
16:00 +14°C° 0 mm 4 m/S 735 mmHg 76%
17:00 +13°C° 0 mm 4 m/S 735 mmHg 78%
18:00 +12°C° 0 mm 4 m/S 735 mmHg 80%
19:00 +12°C° 0 mm 4 m/S 735 mmHg 83%
20:00 +11°C° 0 mm 4 m/S 735 mmHg 84%
21:00 +11°C° 0 mm 4 m/S 735 mmHg 85%
22:00 +10°C° 0 mm 3 m/S 735 mmHg 87%
23:00 +10°C° 0 mm 3 m/S 735 mmHg 87%

27 Oktober, Dienstag

Zeit Temperatur Niederschläge Wind Luftdruck Luftfeuchtigkeit
00:00 +10°C° 0 mm 3 m/S 735 mmHg 87%
01:00 +10°C° 0 mm 3 m/S 735 mmHg 87%
02:00 +10°C° 0 mm 3 m/S 735 mmHg 87%
03:00 +10°C° 0 mm 3 m/S 735 mmHg 86%
04:00 +10°C° 0 mm 3 m/S 735 mmHg 86%
05:00 +10°C° 0 mm 3 m/S 735 mmHg 86%
06:00 +10°C° 0 mm 3 m/S 736 mmHg 87%
07:00 +10°C° 0 mm 3 m/S 736 mmHg 88%
08:00 +11°C° 0 mm 3 m/S 736 mmHg 83%
09:00 +13°C° 0 mm 3 m/S 736 mmHg 78%
10:00 +14°C° 0 mm 3 m/S 736 mmHg 73%
11:00 +16°C° 0 mm 3 m/S 737 mmHg 69%
12:00 +17°C° 0 mm 3 m/S 737 mmHg 66%
13:00 +18°C° 0 mm 3 m/S 737 mmHg 63%
14:00 +17°C° 0 mm 3 m/S 737 mmHg 67%
15:00 +17°C° 0 mm 2 m/S 737 mmHg 71%
16:00 +16°C° 0 mm 2 m/S 737 mmHg 74%
17:00 +15°C° 0 mm 2 m/S 737 mmHg 78%
18:00 +14°C° 0 mm 2 m/S 737 mmHg 81%
19:00 +13°C° 0 mm 2 m/S 737 mmHg 84%
20:00 +13°C° 0 mm 2 m/S 738 mmHg 86%
21:00 +12°C° 0 mm 2 m/S 738 mmHg 87%
22:00 +12°C° 0 mm 2 m/S 738 mmHg 88%
23:00 +12°C° 0 mm 2 m/S 738 mmHg 88%

28 Oktober, Mittwoch

Zeit Temperatur Niederschläge Wind Luftdruck Luftfeuchtigkeit
00:00 +12°C° 0 mm 1 m/S 738 mmHg 88%
01:00 +11°C° 0 mm 1 m/S 738 mmHg 88%
02:00 +11°C° 0 mm 1 m/S 738 mmHg 88%
03:00 +10°C° 0 mm 0 m/S 738 mmHg 88%
04:00 +10°C° 0 mm 0 m/S 738 mmHg 88%
05:00 +10°C° 0 mm 0 m/S 738 mmHg 89%
06:00 +10°C° 0 mm 0 m/S 738 mmHg 89%
07:00 +10°C° 0 mm 1 m/S 739 mmHg 90%
08:00 +12°C° 0 mm 1 m/S 739 mmHg 85%
09:00 +13°C° 0 mm 1 m/S 739 mmHg 79%
10:00 +14°C° 0 mm 1 m/S 739 mmHg 74%
11:00 +15°C° 0 mm 1 m/S 739 mmHg 72%
12:00 +16°C° 0 mm 1 m/S 739 mmHg 69%
13:00 +16°C° 0 mm 1 m/S 739 mmHg 67%
14:00 +16°C° 0 mm 1 m/S 739 mmHg 70%
15:00 +15°C° 0 mm 1 m/S 739 mmHg 74%
16:00 +14°C° 0 mm 1 m/S 739 mmHg 78%
17:00 +14°C° 0 mm 1 m/S 739 mmHg 82%
18:00 +13°C° 0 mm 1 m/S 739 mmHg 86%
19:00 +13°C° 0 mm 1 m/S 740 mmHg 90%
20:00 +13°C° 0 mm 1 m/S 740 mmHg 91%
21:00 +13°C° 0 mm 1 m/S 740 mmHg 92%
22:00 +12°C° 0 mm 2 m/S 740 mmHg 93%
23:00 +12°C° 0 mm 2 m/S 740 mmHg 94%
Mehr zeigen

Wir brauchen deine Erlaubnis

Meteoprog und unser Service Anbieter werden persönliche Daten aufbewahren, so wie Cookies, Geräte Bezeichnung oder ähnliche Technologien von deinem Gerät und Prozess, so wie Persönliche Daten Inhalte und Werbungen, genauso wie social Media und den Verkehr zu analysieren.

  • Aufbewahrung und/oder Zugang zu deiner Geräte Informationen.

    Cookies, Geräte Bezeichnung oder andere Informationen, können aufbewahrt oder Zugang zu deinem Gerät erhalten, für den Grund, der oben angegeben wird.

  • Personalisierte Werbung und Inhalte, Messungen, Einblick in das Publikum und Produkt Entwicklung.

    Werbungen und Inhalte können personalisiert werden, basierend auf ein Profil. Mehr Daten können besser personalisierte Werbungen und Inhalte hinzufügen. Werbung und Inhalte können gezeigt und gemessen werden. Einblicke über das Publikum, welche die Werbung gesehen haben und den Inhalt, können abgeleitet werden. So wie Daten können genutzt werden, um es zu verbessern oder die Benutzer Erfahrung zu verbessern das System und die Software.

Wenn du “Ich stimme zu” klickst, erlaubst du uns, die Cookies zu benutzen die Geräte Bezeichnung, den Web oder ähnliche Technologien zu benutzen. Deine Settings, können in deinem Gerät bei deinem Browser geändert werden.

Für den bestimmten Zweck, berechtigten Interessen beruhen darauf, mehr als auf den Inhalt. Du kannst mehr darüber in unseren Privaten und Cookie Politik lesen.